Regional Weather Roundup
Issued by NWS Portland, ME

Home | Current Version | Previous Version | Text Only | Print | Product List | Glossary On
Versions: 1 2 3 4 5 6 7 8 9 10 11 12 13 14 15 16 17 18 19 20 21 22 23 24 25 26 27 28 29 30 31 32 33 34 35 36 37 38 39 40 41 42 43 44 45 46 47 48 49 50
000
ASUS41 KGYX 202010
RWRGYX
WEATHER ROUNDUP FOR MAINE AND NEW HAMPSHIRE
NATIONAL WEATHER SERVICE GRAY ME
300 PM EST THU NOV 20 2014

MEZ002-005-006-010-012-015-018-020-021-024-026-027-029-202100-
MAINE

CITY           SKY/WX    TMP DP  RH WIND       PRES   REMARKS
PORTLAND       MOCLDY    43  18  36 SW12G22   29.73F
SANFORD        MOSUNNY   41  16  36 W13G21    29.73S
BAR HARBOR     PTCLDY    43  27  52 SW14G24   29.71F
WISCASSET      CLOUDY    40  19  43 SW7       29.74F
ROCKLAND       CLEAR     39  19  45 SW13G21   29.72S
FRYEBURG       CLOUDY    37  17  44 SW10G24   29.73S
LEWISTONAUBURN CLOUDY    37  16  41 W7        29.72S
AUGUSTA        CLOUDY    36  16  44 SW9G20    29.72S
WATERVILLE     MOCLDY    39  16  38 SW14      29.68S
BANGOR         PTCLDY    39  18  42 SW12      29.70F
GREENVILLE       N/A     28  19  69 VRB5      29.62S
MILLINOCKET    CLOUDY    32  18  56 CALM      29.71R
HOULTON        PTCLDY    32  18  56 S3        29.68F
PRESQUE ISLE   CLOUDY    30  16  55 S8        29.67S
FRENCHVILLE    CLOUDY    26  14  60 S10       29.62F WCI  16
CARIBOU        CLOUDY    30  17  58 VRB6      29.66F
$$

NHZ002-005-008-009-011-012-014-202100-
NEW HAMPSHIRE

CITY           SKY/WX    TMP DP  RH WIND       PRES   REMARKS
PORTSMOUTH     MOSUNNY   43  18  37 W10       29.72F
ROCHESTER      CLOUDY    40  17  39 VRB3      29.73S
NASHUA         SUNNY     43  17  35 W8        29.76S
MANCHESTER     MOSUNNY   42  15  33 W13G21    29.73F
CONCORD        CLOUDY    39  15  37 SW12G21   29.74S
LACONIA        CLOUDY    37  16  41 NW12G22   29.72R
PLYMOUTH       CLOUDY    35  22  59 W5G17     29.74S
BERLIN         LGT SNOW  31  19  61 VRB3      29.67R
WHITEFIELD     PTSUNNY   33  17  51 W9G20     29.69R
JAFFREY        PTSUNNY   37  17  44 W10       29.74R
LEBANON        CLOUDY    36  13  38 W9        29.75R
MT WASHINGTON  DRFTSNOW   7   7 100 W37G44      N/A  VSB 0   WCI -19
$$

VTZ005-007-008-202100-
VERMONT

CITY           SKY/WX    TMP DP  RH WIND       PRES   REMARKS
ST JOHNSBURY     N/A     32  19  58 MISG      29.71R
MONTPELIER     PTSUNNY   29  17  61 SW9       29.75S
BURLINGTON     PTSUNNY   31  18  58 W17G28    29.76R WCI  19
$$

MAZ007-012-024-CTZ003-RIZ002-NYZ038-NYZ072-202100-
SOUTHERN NEW ENGLAND AND NY

CITY           SKY/WX    TMP DP  RH WIND       PRES   REMARKS
BOSTON         MOSUNNY   47  20  34 W16G26    29.74F
WORCESTER      SUNNY     39  14  36 SW21      29.72S
NANTUCKET      CLOUDY    49  31  49 W18G32    29.82F
PROVIDENCE     MOSUNNY   47  22  37 SW26G33   29.78S
HARTFORD       MOSUNNY   45  15  30 W13       29.77F
ALBANY         FLURRIES  33  22  63 NW12      29.83R
NEW YORK CITY  MOSUNNY   46  22  38 W22G30    29.84F
$$

ANZ081-ANZ082-ANZ150-NHZ014-MEZ023>029-202100-
COASTAL MARINE OBSERVATIONS

STATION/POSITION TIME  TEMP    WIND        PRES    WAVE
                       AIR SEA DIR/SP/G            HT/PER
                 (UTC) (F)     (DEG/KT/KT) (MB)    (FT/S)
MOUNT DESERT ROC 2000   45                 1005.5F
MATINICUS ROCK   2000          250/ 26/ 29 1006.0F
PORTLAND WX BUOY 1950   43 51  240/ 17/ 23 1006.3F   4/ 6
WELLS            1900   43 45  240/  9/ 16 1006.3F
ISLE OF SHOALS   2000   43     270/ 20/ 22 1005.9F
JEFFREYS LEDGE   1921      52                N/A     5/ 5
CASHES LEDGE BUO 1950   46 51  240/ 23/ 29 1006.6F   7/ 7
$$

.............KEY..............
   WCI - WIND CHILL
   TC  - TEMPERATURE IN CELSIUS
   VSB - VISIBILITY IN MILES
   HX  - HEAT INDEX
   FAIR- INDICATES FEW OR NO CLOUDS BELOW 12,000 FT, WITH NO
         SIGNIFICANT WEATHER AND/OR OBSTRUCTIONS TO VISIBILITY.




USA.gov is the U.S. government's official web portal to all federal, state and local government web resources and services.